ISS (PRICHAL) (49499 NORAD) Tracking and Keplerian Element Data

This shows tracking and keplerian element data for the satellite.

Feedback or suggestion? Click here.




ElementValue
Catalog49499
NameISS (PRICHAL)
Epoch Orbit31732
Epoch Day353.5505127
Epoch Year2021
RAAN146.1522
Inclination51.639
Eccentricity0.0004431
Argument of Perigee333.7644
Mean Anonmoly141.6223
Mean Motion15.4897071
Decay Rate-0.00021572
L11 49499U 21111A 21353.55051270 -.00021572 00000+0 -38473-3 0 9996
L22 49499 51.6390 146.1522 0004431 333.7644 141.6223 15.48970710317321



Live tracking and technical data element details for ISS (PRICHAL) (NORAD 49499). ISS (PRICHAL) can be tracked NOW for your location showing map with azimuth and elevation plus other details from your city location.







IsCatalogInMostPopularTable: catalog: 49499, numindb: 350
Update: records affected: 1



GetName: 49499 ISS (PRICHAL)

Hit Count: updated at: Mon, 17 Nov 2025 06:14:20 GMT